,,,PA_Meas_PMT16A,,PR_Meas_QMR101_102,,RH_Meas_QMH101,,SR_Meas_QMS101,,TA_Meas_QMH101,,GenWind,,GenWind,
date,time,status,PA,status,PR,status,RH,status,SR,status,TA,status,DirAvg,status,SpdAvg,
2010-09-09, 00:00:04,VALID,1006.23,VALID,0,INVALID,123.321,VALID,0,VALID,24.5406,VALID,355,VALID,0.801562,
2010-09-09, 00:01:04,VALID,1006.22,VALID,0,INVALID,123.321,VALID,0,VALID,24.5406,VALID,355,VALID,0.553125,
2010-09-09, 00:02:04,VALID,1006.27,VALID,0,INVALID,123.344,VALID,0,VALID,24.5212,VALID,12,VALID,1.15313,
2010-09-09, 00:03:04,VALID,1006.3,VALID,0,INVALID,123.344,VALID,0,VALID,24.4804,VALID,16,VALID,0.595312,
2010-09-09, 00:04:04,VALID,1006.28,VALID,0,INVALID,123.336,VALID,0,VALID,24.4804,VALID,35,VALID,0.667188,
2010-09-09, 00:05:04,VALID,1006.31,VALID,0,INVALID,123.351,VALID,0,VALID,24.4822,VALID,353,VALID,1.56797,
2010-09-09, 00:06:04,VALID,1006.29,VALID,0.5,INVALID,123.344,VALID,0,VALID,24.4822,VALID,9,VALID,0.904688,
2010-09-09, 00:07:04,VALID,1006.28,VALID,0.5,INVALID,123.336,VALID,0,VALID,24.4414,VALID,10,VALID,0.296094,
2010-09-09, 00:08:04,VALID,1006.3,VALID,0,INVALID,123.328,VALID,0,VALID,24.4025,VALID,358,VALID,0.786328,
2010-09-09, 00:09:04,VALID,1006.31,VALID,0,INVALID,123.29,VALID,0,VALID,24.383,VALID,358,VALID,0.700781,
2010-09-09, 00:10:04,VALID,1006.3,VALID,0,INVALID,123.184,VALID,0,VALID,24.3849,VALID,359,VALID,1.1875,
2010-09-09, 00:11:04,VALID,1006.28,VALID,0,INVALID,123.1,VALID,0,VALID,24.3441,VALID,356,VALID,0.929297,
2010-09-09, 00:12:04,VALID,1006.31,VALID,0,INVALID,123,VALID,0,VALID,24.3654,VALID,360,VALID,0.786328,
2010-09-09, 00:13:04,VALID,1006.3,VALID,0,INVALID,122.947,VALID,0,VALID,24.3441,VALID,358,VALID,1.1625,
2010-09-09, 00:14:04,VALID,1006.32,VALID,0,INVALID,122.787,VALID,0,VALID,24.3246,VALID,357,VALID,0.855078,
2010-09-09, 00:15:04,VALID,1006.28,VALID,0,INVALID,122.718,VALID,0,VALID,24.3246,VALID,10,VALID,0.915625,
2010-09-09, 00:16:04,VALID,1006.22,VALID,0,INVALID,122.688,VALID,0,VALID,24.3459,VALID,359,VALID,0.939844,
2010-09-09, 00:17:04,VALID,1006.21,VALID,0,INVALID,122.657,VALID,0,VALID,24.3052,VALID,352,VALID,0.797266,
2010-09-09, 00:18:04,VALID,1006.16,VALID,0,INVALID,122.573,VALID,0,VALID,24.3052,VALID,354,VALID,1.12812,
2010-09-09, 00:19:04,VALID,1006.13,VALID,0,INVALID,122.527,VALID,0,VALID,24.3459,VALID,6,VALID,1.14492,
2010-09-09, 00:20:04,VALID,1006.15,VALID,0,INVALID,122.52,VALID,0,VALID,24.3246,VALID,356,VALID,1.27109,
2010-09-09, 00:21:04,VALID,1006.16,VALID,0,INVALID,122.497,VALID,0,VALID,24.3246,VALID,358,VALID,1.02891,
2010-09-09, 00:22:04,VALID,1006.13,VALID,0,INVALID,122.444,VALID,0,VALID,24.3265,VALID,10,VALID,0.862109,
2010-09-09, 00:23:04,VALID,1006.12,VALID,0,INVALID,122.436,VALID,0,VALID,24.3246,VALID,15,VALID,1.3125,
2010-09-09, 00:24:04,VALID,1006.1,VALID,0,INVALID,122.428,VALID,0.100563,VALID,24.3246,VALID,31,VALID,1.28945,
2010-09-09, 00:25:04,VALID,1006.1,VALID,0,INVALID,122.405,VALID,0,VALID,24.3052,VALID,7,VALID,1.05469,
2010-09-09, 00:26:04,VALID,1006.02,VALID,0,INVALID,122.474,VALID,0,VALID,24.2857,VALID,1,VALID,1.1207,
2010-09-09, 00:27:04,VALID,1005.99,VALID,0,INVALID,122.398,VALID,0,VALID,24.2857,VALID,348,VALID,0.63125,
2010-09-09, 00:28:04,VALID,1005.95,VALID,0,INVALID,122.497,VALID,0,VALID,24.307,VALID,346,VALID,1.28672,
2010-09-09, 00:29:04,VALID,1005.93,VALID,0,INVALID,122.535,VALID,0,VALID,24.2857,VALID,345,VALID,0.688672,
2010-09-09, 00:30:04,VALID,1005.92,VALID,0,INVALID,122.505,VALID,0,VALID,24.307,VALID,357,VALID,0.636719,
2010-09-09, 00:31:04,VALID,1005.89,VALID,0.5,INVALID,122.596,VALID,0,VALID,24.2875,VALID,351,VALID,1.11875,
2010-09-09, 00:32:04,VALID,1005.83,VALID,0,INVALID,122.566,VALID,0,VALID,24.2662,VALID,351,VALID,0.914844,
2010-09-09, 00:33:04,VALID,1005.82,VALID,0,INVALID,122.527,VALID,0,VALID,24.2857,VALID,353,VALID,0.979297,
2010-09-09, 00:34:04,VALID,1005.81,VALID,0,INVALID,122.459,VALID,0,VALID,24.2662,VALID,349,VALID,0.891797,
2010-09-09, 00:35:04,VALID,1005.77,VALID,0,INVALID,122.482,VALID,0,VALID,24.2857,VALID,345,VALID,1.39258,
2010-09-09, 00:36:04,VALID,1005.74,VALID,0,INVALID,122.436,VALID,0,VALID,24.2662,VALID,351,VALID,0.946875,
2010-09-09, 00:37:04,VALID,1005.71,VALID,0,INVALID,122.421,VALID,0,VALID,24.2681,VALID,343,VALID,0.982422,
2010-09-09, 00:38:04,VALID,1005.68,VALID,0,INVALID,122.352,VALID,0,VALID,24.2468,VALID,348,VALID,0.742969,
2010-09-09, 00:39:04,VALID,1005.65,VALID,0,INVALID,122.314,VALID,0,VALID,24.2486,VALID,342,VALID,0.866016,
2010-09-09, 00:40:04,VALID,1005.61,VALID,0,INVALID,122.23,VALID,0,VALID,24.2273,VALID,359,VALID,0.95,
2010-09-09, 00:41:04,VALID,1005.61,VALID,0,INVALID,122.146,VALID,0,VALID,24.2291,VALID,350,VALID,1.06914,
2010-09-09, 00:42:04,VALID,1005.61,VALID,0,INVALID,122.093,VALID,0,VALID,24.2078,VALID,356,VALID,1.0082,
2010-09-09, 00:43:04,VALID,1005.59,VALID,0,INVALID,122.024,VALID,0,VALID,24.2078,VALID,349,VALID,0.862891,
2010-09-09, 00:44:04,VALID,1005.59,VALID,0,INVALID,121.925,VALID,0,VALID,24.2273,VALID,360,VALID,0.935938,
2010-09-09, 00:45:04,VALID,1005.6,VALID,0,INVALID,121.871,VALID,0,VALID,24.2078,VALID,360,VALID,0.375,
2010-09-09, 00:46:04,VALID,1005.56,VALID,0,INVALID,121.833,VALID,0,VALID,24.1884,VALID,1,VALID,0.620703,
2010-09-09, 00:47:04,VALID,1005.56,VALID,0,INVALID,121.765,VALID,0,VALID,24.1884,VALID,358,VALID,0.763281,
2010-09-09, 00:48:04,VALID,1005.53,VALID,0,INVALID,121.772,VALID,0,VALID,24.1689,VALID,350,VALID,0.828516,
2010-09-09, 00:49:04,VALID,1005.51,VALID,0,INVALID,121.742,VALID,0,VALID,24.1494,VALID,358,VALID,0.843359,
2010-09-09, 00:50:04,VALID,1005.51,VALID,0,INVALID,121.658,VALID,0,VALID,24.1281,VALID,352,VALID,0.354688,
2010-09-09, 00:51:04,VALID,1005.47,VALID,0,INVALID,121.612,VALID,0,VALID,24.1513,VALID,343,VALID,0.652734,
2010-09-09, 00:52:04,VALID,1005.46,VALID,0,INVALID,121.505,VALID,0,VALID,24.1494,VALID,332,VALID,0.0988281,
2010-09-09, 00:53:04,VALID,1005.45,VALID,0,INVALID,121.475,VALID,0,VALID,24.1707,VALID,341,VALID,0.430078,
2010-09-09, 00:54:04,VALID,1005.45,VALID,0,INVALID,121.52,VALID,0,VALID,24.1513,VALID,345,VALID,0.603516,
2010-09-09, 00:55:04,VALID,1005.48,VALID,0,INVALID,121.49,VALID,0,VALID,24.13,VALID,353,VALID,0.709766,
2010-09-09, 00:56:04,VALID,1005.48,VALID,0,INVALID,121.513,VALID,0,VALID,24.1318,VALID,353,VALID,0.878906,
2010-09-09, 00:57:04,VALID,1005.46,VALID,0,INVALID,121.459,VALID,0,VALID,24.1105,VALID,355,VALID,0.426953,
2010-09-09, 00:58:04,VALID,1005.47,VALID,0,INVALID,121.383,VALID,0,VALID,24.13,VALID,329,VALID,0.396094,
2010-09-09, 00:59:04,VALID,1005.48,VALID,0,INVALID,121.36,VALID,0,VALID,24.13,VALID,344,VALID,0.679688,
2010-09-09, 01:00:04,VALID,1005.46,VALID,0,INVALID,121.414,VALID,0,VALID,24.1318,VALID,357,VALID,0.742188,
2010-09-09, 01:01:04,VALID,1005.43,VALID,0,INVALID,121.421,VALID,0,VALID,24.1105,VALID,354,VALID,0.538672,
2010-09-09, 01:02:04,VALID,1005.39,VALID,0,INVALID,121.414,VALID,0,VALID,24.091,VALID,345,VALID,1.10078,
2010-09-09, 01:03:04,VALID,1005.41,VALID,0,INVALID,121.452,VALID,0,VALID,24.1123,VALID,355,VALID,0.846484,
2010-09-09, 01:04:04,VALID,1005.41,VALID,0,INVALID,121.437,VALID,0,VALID,24.091,VALID,358,VALID,0.967969,
2010-09-09, 01:05:04,VALID,1005.42,VALID,0,INVALID,121.421,VALID,0,VALID,24.1336,VALID,357,VALID,0.748828,
2010-09-09, 01:06:04,VALID,1005.41,VALID,0,INVALID,121.414,VALID,0,VALID,24.1123,VALID,359,VALID,0.755078,
2010-09-09, 01:07:04,VALID,1005.44,VALID,0,INVALID,121.398,VALID,0,VALID,24.1123,VALID,353,VALID,0.860547,
2010-09-09, 01:08:04,VALID,1005.43,VALID,0,INVALID,121.398,VALID,0,VALID,24.1123,VALID,360,VALID,0.592578,
2010-09-09, 01:09:04,VALID,1005.45,VALID,0,INVALID,121.437,VALID,0,VALID,24.1123,VALID,349,VALID,1.03945,
2010-09-09, 01:10:04,VALID,1005.48,VALID,0,INVALID,121.414,VALID,0,VALID,24.1123,VALID,335,VALID,0.582422,
2010-09-09, 01:11:04,VALID,1005.5,VALID,0,INVALID,121.421,VALID,0,VALID,24.1123,VALID,343,VALID,0.748828,
2010-09-09, 01:12:04,VALID,1005.5,VALID,0,INVALID,121.475,VALID,0,VALID,24.1318,VALID,343,VALID,0.544531,
2010-09-09, 01:13:04,VALID,1005.5,VALID,0,INVALID,121.505,VALID,0.100563,VALID,24.1318,VALID,343,VALID,0.0242187,
2010-09-09, 01:14:04,VALID,1005.52,VALID,0,INVALID,121.543,VALID,0,VALID,24.1105,VALID,343,VALID,0.565234,
2010-09-09, 01:15:04,VALID,1005.48,VALID,0,INVALID,121.597,VALID,0,VALID,24.1105,VALID,342,VALID,0.613672,
2010-09-09, 01:16:04,VALID,1005.49,VALID,0,INVALID,121.559,VALID,0,VALID,24.1318,VALID,305,VALID,0.275,
2010-09-09, 01:17:04,VALID,1005.55,VALID,0,INVALID,121.52,VALID,0,VALID,24.1707,VALID,335,VALID,0.155078,
2010-09-09, 01:18:04,VALID,1005.51,VALID,0,INVALID,121.559,VALID,0,VALID,24.1707,VALID,348,VALID,0.494141,
2010-09-09, 01:19:04,VALID,1005.57,VALID,0,INVALID,121.642,VALID,0,VALID,24.1902,VALID,348,VALID,0.570703,
2010-09-09, 01:20:04,VALID,1005.54,VALID,0,INVALID,121.681,VALID,0,VALID,24.1902,VALID,279,VALID,0.390625,
2010-09-09, 01:21:04,VALID,1005.58,VALID,0,INVALID,121.688,VALID,0,VALID,24.1884,VALID,356,VALID,1.06758,
2010-09-09, 01:22:04,VALID,1005.61,VALID,0,INVALID,121.688,VALID,0,VALID,24.2097,VALID,358,VALID,0.672656,
2010-09-09, 01:23:04,VALID,1005.59,VALID,0,INVALID,121.757,VALID,0,VALID,24.2291,VALID,344,VALID,0.869141,
2010-09-09, 01:24:04,VALID,1005.6,VALID,0,INVALID,121.826,VALID,0,VALID,24.1902,VALID,350,VALID,0.562891,
2010-09-09, 01:25:04,VALID,1005.61,VALID,0,INVALID,121.841,VALID,0,VALID,24.1884,VALID,354,VALID,0.355859,
2010-09-09, 01:26:04,VALID,1005.59,VALID,0,INVALID,121.841,VALID,0,VALID,24.2097,VALID,359,VALID,0.610547,
2010-09-09, 01:27:04,VALID,1005.57,VALID,0,INVALID,121.841,VALID,0,VALID,24.2097,VALID,338,VALID,0.619531,
2010-09-09, 01:28:04,VALID,1005.58,VALID,0,INVALID,121.818,VALID,0,VALID,24.2504,VALID,346,VALID,0.340234,
2010-09-09, 01:29:04,VALID,1005.58,VALID,0,INVALID,121.765,VALID,0,VALID,24.2273,VALID,344,VALID,0.353516,
2010-09-09, 01:30:04,VALID,1005.54,VALID,0,INVALID,121.719,VALID,0,VALID,24.2486,VALID,336,VALID,0.177734,
2010-09-09, 01:31:04,VALID,1005.52,VALID,0,INVALID,121.765,VALID,0,VALID,24.2486,VALID,351,VALID,0.676953,
2010-09-09, 01:32:04,VALID,1005.5,VALID,0,INVALID,121.749,VALID,0,VALID,24.2681,VALID,345,VALID,0.617969,
2010-09-09, 01:33:04,VALID,1005.49,VALID,0,INVALID,121.765,VALID,0,VALID,24.2468,VALID,353,VALID,0.717578,
2010-09-09, 01:34:04,VALID,1005.45,VALID,0,INVALID,121.78,VALID,0,VALID,24.2486,VALID,350,VALID,1.05352,
2010-09-09, 01:35:04,VALID,1005.47,VALID,0,INVALID,121.81,VALID,0,VALID,24.2894,VALID,353,VALID,0.735156,
2010-09-09, 01:36:04,VALID,1005.42,VALID,0,INVALID,121.826,VALID,0,VALID,24.2273,VALID,351,VALID,1.03437,
2010-09-09, 01:37:04,VALID,1005.41,VALID,0,INVALID,121.803,VALID,0,VALID,24.2681,VALID,355,VALID,0.725,
2010-09-09, 01:38:04,VALID,1005.39,VALID,0,INVALID,121.795,VALID,0,VALID,24.2486,VALID,356,VALID,0.83125,
2010-09-09, 01:39:04,VALID,1005.35,VALID,0,INVALID,121.841,VALID,0,VALID,24.2291,VALID,355,VALID,1.16719,
2010-09-09, 01:40:04,VALID,1005.3,VALID,0,INVALID,121.772,VALID,0,VALID,24.2486,VALID,346,VALID,0.803906,
2010-09-09, 01:41:04,VALID,1005.27,VALID,0,INVALID,121.749,VALID,0,VALID,24.2291,VALID,352,VALID,0.994922,
2010-09-09, 01:42:04,VALID,1005.24,VALID,0,INVALID,121.726,VALID,0,VALID,24.2078,VALID,347,VALID,1.12148,
2010-09-09, 01:43:04,VALID,1005.21,VALID,0,INVALID,121.673,VALID,0,VALID,24.2097,VALID,351,VALID,1.11563,
2010-09-09, 01:44:04,VALID,1005.21,VALID,0,INVALID,121.612,VALID,0,VALID,24.2078,VALID,1,VALID,1.49102,
2010-09-09, 01:45:04,VALID,1005.19,VALID,0,INVALID,121.513,VALID,0,VALID,24.2078,VALID,349,VALID,1.29648,
2010-09-09, 01:46:04,VALID,1005.24,VALID,0,INVALID,121.543,VALID,0,VALID,24.206,VALID,349,VALID,1.02852,
2010-09-09, 01:47:04,VALID,1005.2,VALID,0,INVALID,121.482,VALID,0.100563,VALID,24.2662,VALID,349,VALID,0.880859,
2010-09-09, 01:48:04,VALID,1005.19,VALID,0,INVALID,121.505,VALID,0,VALID,24.2662,VALID,351,VALID,0.887891,
2010-09-09, 01:49:04,VALID,1005.13,VALID,0,INVALID,121.543,VALID,0,VALID,24.2875,VALID,348,VALID,1.26367,
2010-09-09, 01:50:04,VALID,1005.07,VALID,0,INVALID,121.604,VALID,0,VALID,24.2857,VALID,349,VALID,1.26523,
2010-09-09, 01:51:04,VALID,1005.04,VALID,0,INVALID,121.726,VALID,0,VALID,24.2857,VALID,350,VALID,1.16641,
2010-09-09, 01:52:04,VALID,1004.98,VALID,0,INVALID,121.841,VALID,0,VALID,24.3052,VALID,352,VALID,1.78437,
2010-09-09, 01:53:04,VALID,1004.97,VALID,0,INVALID,121.932,VALID,0,VALID,24.3052,VALID,345,VALID,1.29102,
2010-09-09, 01:54:04,VALID,1004.92,VALID,0,INVALID,121.993,VALID,0,VALID,24.3459,VALID,349,VALID,1.28984,
2010-09-09, 01:55:04,VALID,1004.92,VALID,0,INVALID,122.085,VALID,0,VALID,24.3052,VALID,355,VALID,1.10859,
2010-09-09, 01:56:04,VALID,1004.87,VALID,0,INVALID,122.108,VALID,0,VALID,24.3265,VALID,338,VALID,0.880078,
2010-09-09, 01:57:04,VALID,1004.81,VALID,0,INVALID,122.123,VALID,0,VALID,24.3052,VALID,355,VALID,1.05977,
2010-09-09, 01:58:04,VALID,1004.77,VALID,0,INVALID,122.177,VALID,0,VALID,24.3265,VALID,355,VALID,1.91016,
2010-09-09, 01:59:04,VALID,1004.75,VALID,0,INVALID,122.245,VALID,0,VALID,24.3052,VALID,354,VALID,2.48477,
2010-09-09, 02:00:04,VALID,1004.72,VALID,0,INVALID,122.329,VALID,0,VALID,24.3052,VALID,321,VALID,1.27734,
2010-09-09, 02:01:04,VALID,1004.75,VALID,0,INVALID,122.413,VALID,0,VALID,24.3459,VALID,349,VALID,1.52148,
2010-09-09, 02:02:04,VALID,1004.73,VALID,0,INVALID,122.588,VALID,0,VALID,24.3441,VALID,348,VALID,2.11484,
2010-09-09, 02:03:04,VALID,1004.78,VALID,0,INVALID,122.688,VALID,0,VALID,24.3654,VALID,1,VALID,1.38047,
2010-09-09, 02:04:04,VALID,1004.78,VALID,0,INVALID,122.794,VALID,0,VALID,24.3849,VALID,354,VALID,1.20352,
2010-09-09, 02:05:04,VALID,1004.8,VALID,0,INVALID,122.886,VALID,0,VALID,24.3654,VALID,351,VALID,1.65117,
2010-09-09, 02:06:04,VALID,1004.8,VALID,0,INVALID,122.962,VALID,0,VALID,24.3636,VALID,331,VALID,1.16914,
2010-09-09, 02:07:04,VALID,1004.82,VALID,0,INVALID,123.046,VALID,0,VALID,24.3636,VALID,352,VALID,1.55938,
2010-09-09, 02:08:04,VALID,1004.8,VALID,0,INVALID,123.145,VALID,0,VALID,24.3636,VALID,352,VALID,1.19766,
2010-09-09, 02:09:04,VALID,1004.78,VALID,0,INVALID,123.191,VALID,0.100563,VALID,24.3636,VALID,347,VALID,1.1332,
2010-09-09, 02:10:04,VALID,1004.77,VALID,0,INVALID,123.199,VALID,0,VALID,24.3636,VALID,347,VALID,1.31602,
2010-09-09, 02:11:04,VALID,1004.76,VALID,0,INVALID,123.252,VALID,0,VALID,24.3636,VALID,353,VALID,1.26328,
2010-09-09, 02:12:04,VALID,1004.7,VALID,0,INVALID,123.252,VALID,0,VALID,24.3441,VALID,351,VALID,1.28477,
2010-09-09, 02:13:04,VALID,1004.68,VALID,0,INVALID,123.237,VALID,0,VALID,24.3441,VALID,355,VALID,1.25508,
2010-09-09, 02:14:04,VALID,1004.65,VALID,0,INVALID,123.252,VALID,0,VALID,24.3246,VALID,348,VALID,1.27461,
2010-09-09, 02:15:04,VALID,1004.64,VALID,0,INVALID,123.199,VALID,0,VALID,24.3246,VALID,346,VALID,0.758203,
2010-09-09, 02:16:04,VALID,1004.61,VALID,0,INVALID,123.161,VALID,0,VALID,24.3459,VALID,348,VALID,0.71875,
2010-09-09, 02:17:04,VALID,1004.62,VALID,0,INVALID,123.145,VALID,0,VALID,24.3052,VALID,346,VALID,0.892969,
2010-09-09, 02:18:04,VALID,1004.66,VALID,0,INVALID,123.145,VALID,0,VALID,24.2857,VALID,357,VALID,1.5082,
2010-09-09, 02:19:04,VALID,1004.66,VALID,0,INVALID,123.069,VALID,0,VALID,24.2857,VALID,347,VALID,0.889063,
2010-09-09, 02:20:04,VALID,1004.66,VALID,0,INVALID,123.023,VALID,0,VALID,24.307,VALID,347,VALID,0.773438,
2010-09-09, 02:21:04,VALID,1004.69,VALID,0,INVALID,123.023,VALID,0,VALID,24.2875,VALID,342,VALID,0.886719,
2010-09-09, 02:22:04,VALID,1004.69,VALID,0,INVALID,122.97,VALID,0,VALID,24.2875,VALID,345,VALID,0.749219,
2010-09-09, 02:23:04,VALID,1004.68,VALID,0,INVALID,122.985,VALID,0,VALID,24.2681,VALID,353,VALID,1.04141,
2010-09-09, 02:24:04,VALID,1004.66,VALID,0,INVALID,122.924,VALID,0,VALID,24.2681,VALID,342,VALID,0.93125,
2010-09-09, 02:25:04,VALID,1004.66,VALID,0,INVALID,122.909,VALID,0,VALID,24.2681,VALID,354,VALID,1.30859,
2010-09-09, 02:26:04,VALID,1004.64,VALID,0,INVALID,122.917,VALID,0,VALID,24.2468,VALID,2,VALID,0.613672,
2010-09-09, 02:27:04,VALID,1004.63,VALID,0,INVALID,122.924,VALID,0,VALID,24.2681,VALID,345,VALID,1.44922,
2010-09-09, 02:28:04,VALID,1004.62,VALID,0,INVALID,122.894,VALID,0,VALID,24.2273,VALID,346,VALID,0.608984,
2010-09-09, 02:29:04,VALID,1004.61,VALID,0,INVALID,122.886,VALID,0,VALID,24.2486,VALID,353,VALID,0.889453,
2010-09-09, 02:30:04,VALID,1004.61,VALID,0,INVALID,122.894,VALID,0,VALID,24.2486,VALID,357,VALID,0.907812,
2010-09-09, 02:31:04,VALID,1004.61,VALID,0,INVALID,122.909,VALID,0,VALID,24.2078,VALID,343,VALID,0.453516,
2010-09-09, 02:32:04,VALID,1004.65,VALID,0,INVALID,122.863,VALID,0,VALID,24.2078,VALID,345,VALID,0.465625,
2010-09-09, 02:33:04,VALID,1004.66,VALID,0,INVALID,122.878,VALID,0,VALID,24.1884,VALID,350,VALID,1.30742,
2010-09-09, 02:34:04,VALID,1004.71,VALID,0,INVALID,122.871,VALID,0,VALID,24.1884,VALID,348,VALID,0.888672,
2010-09-09, 02:35:04,VALID,1004.7,VALID,0,INVALID,122.894,VALID,0,VALID,24.2097,VALID,351,VALID,0.980469,
2010-09-09, 02:36:04,VALID,1004.73,VALID,0,INVALID,122.84,VALID,0,VALID,24.2291,VALID,352,VALID,0,
2010-09-09, 02:37:04,VALID,1004.74,VALID,0,INVALID,122.817,VALID,0,VALID,24.2078,VALID,349,VALID,0.19375,
2010-09-09, 02:38:04,VALID,1004.72,VALID,0,INVALID,122.825,VALID,0,VALID,24.1884,VALID,347,VALID,0.854297,
2010-09-09, 02:39:04,VALID,1004.75,VALID,0,INVALID,122.817,VALID,0,VALID,24.2078,VALID,318,VALID,0.289844,
2010-09-09, 02:40:04,VALID,1004.73,VALID,0,INVALID,122.794,VALID,0,VALID,24.2078,VALID,310,VALID,0.242188,
2010-09-09, 02:41:04,VALID,1004.74,VALID,0,INVALID,122.772,VALID,0,VALID,24.2097,VALID,296,VALID,0.932813,
2010-09-09, 02:42:04,VALID,1004.71,VALID,0,INVALID,122.794,VALID,0,VALID,24.2097,VALID,286,VALID,0.419531,
2010-09-09, 02:43:04,VALID,1004.74,VALID,0,INVALID,122.825,VALID,0,VALID,24.2078,VALID,290,VALID,0.183203,
2010-09-09, 02:44:04,VALID,1004.74,VALID,0,INVALID,122.825,VALID,0,VALID,24.2291,VALID,289,VALID,0,
2010-09-09, 02:45:04,VALID,1004.72,VALID,0,INVALID,122.825,VALID,0,VALID,24.1884,VALID,293,VALID,0,
2010-09-09, 02:46:04,VALID,1004.71,VALID,0,INVALID,122.794,VALID,0,VALID,24.2078,VALID,293,VALID,0,
2010-09-09, 02:47:04,VALID,1004.7,VALID,0,INVALID,122.772,VALID,0,VALID,24.2291,VALID,289,VALID,0,
2010-09-09, 02:48:04,VALID,1004.67,VALID,0,INVALID,122.779,VALID,0,VALID,24.2097,VALID,288,VALID,0,
2010-09-09, 02:49:04,VALID,1004.67,VALID,0,INVALID,122.733,VALID,0,VALID,24.1884,VALID,288,VALID,0,
2010-09-09, 02:50:04,VALID,1004.67,VALID,0,INVALID,122.749,VALID,0,VALID,24.1902,VALID,292,VALID,0,
2010-09-09, 02:51:04,VALID,1004.71,VALID,0,INVALID,122.718,VALID,0,VALID,24.2097,VALID,335,VALID,0,
2010-09-09, 02:52:04,VALID,1004.7,VALID,0,INVALID,122.726,VALID,0,VALID,24.1494,VALID,343,VALID,0,
2010-09-09, 02:53:04,VALID,1004.75,VALID,0,INVALID,122.688,VALID,0,VALID,24.1494,VALID,343,VALID,0,
2010-09-09, 02:54:04,VALID,1004.75,VALID,0,INVALID,122.68,VALID,0,VALID,24.1494,VALID,343,VALID,0,
2010-09-09, 02:55:04,VALID,1004.74,VALID,0,INVALID,122.627,VALID,0,VALID,24.1513,VALID,343,VALID,0,
2010-09-09, 02:56:04,VALID,1004.75,VALID,0,INVALID,122.604,VALID,0,VALID,24.1513,VALID,343,VALID,0,
2010-09-09, 02:57:04,VALID,1004.72,VALID,0,INVALID,122.543,VALID,0,VALID,24.1513,VALID,292,VALID,0,
2010-09-09, 02:58:04,VALID,1004.78,VALID,0,INVALID,122.482,VALID,0,VALID,24.13,VALID,292,VALID,0,
2010-09-09, 02:59:04,VALID,1004.75,VALID,0,INVALID,122.428,VALID,0,VALID,24.1513,VALID,292,VALID,0,
2010-09-09, 03:00:04,VALID,1004.76,VALID,0,INVALID,122.367,VALID,0,VALID,24.13,VALID,292,VALID,0,
2010-09-09, 03:01:04,VALID,1004.77,VALID,0,INVALID,122.314,VALID,0,VALID,24.13,VALID,292,VALID,0,
2010-09-09, 03:02:04,VALID,1004.78,VALID,0,INVALID,122.299,VALID,0,VALID,24.13,VALID,292,VALID,0,
2010-09-09, 03:03:04,VALID,1004.79,VALID,0,INVALID,122.207,VALID,0,VALID,24.13,VALID,290,VALID,0,
2010-09-09, 03:04:04,VALID,1004.74,VALID,0,INVALID,122.192,VALID,0,VALID,24.1494,VALID,287,VALID,0,
2010-09-09, 03:05:04,VALID,1004.74,VALID,0,INVALID,122.177,VALID,0,VALID,24.1513,VALID,288,VALID,0,
2010-09-09, 03:06:04,VALID,1004.76,VALID,0,INVALID,122.154,VALID,0,VALID,24.13,VALID,288,VALID,0,
2010-09-09, 03:07:04,VALID,1004.75,VALID,0,INVALID,122.108,VALID,0,VALID,24.1105,VALID,289,VALID,0.808594,
2010-09-09, 03:08:04,VALID,1004.73,VALID,0,INVALID,122.07,VALID,0,VALID,24.091,VALID,280,VALID,0.572266,
2010-09-09, 03:09:04,VALID,1004.75,VALID,0,INVALID,122.062,VALID,0,VALID,24.1123,VALID,276,VALID,0.142578,
2010-09-09, 03:10:04,VALID,1004.77,VALID,0,INVALID,122.024,VALID,0,VALID,24.091,VALID,284,VALID,0.904297,
2010-09-09, 03:11:04,VALID,1004.81,VALID,0,INVALID,121.993,VALID,0,VALID,24.091,VALID,292,VALID,0.714844,
2010-09-09, 03:12:04,VALID,1004.81,VALID,0,INVALID,121.978,VALID,0,VALID,24.1123,VALID,295,VALID,0.0433594,
2010-09-09, 03:13:04,VALID,1004.8,VALID,0,INVALID,121.932,VALID,0,VALID,24.1123,VALID,298,VALID,0.582422,
2010-09-09, 03:14:04,VALID,1004.82,VALID,0,INVALID,121.879,VALID,0,VALID,24.091,VALID,298,VALID,0.00195313,
2010-09-09, 03:15:04,VALID,1004.8,VALID,0,INVALID,121.833,VALID,0,VALID,24.1336,VALID,298,VALID,0.213672,
2010-09-09, 03:16:04,VALID,1004.78,VALID,0,INVALID,121.81,VALID,0,VALID,24.1123,VALID,298,VALID,0.0988281,
2010-09-09, 03:17:04,VALID,1004.8,VALID,0,INVALID,121.81,VALID,0,VALID,24.091,VALID,298,VALID,0.277734,
2010-09-09, 03:18:04,VALID,1004.82,VALID,0,INVALID,121.787,VALID,0,VALID,24.0716,VALID,298,VALID,0.396484,
2010-09-09, 03:19:04,VALID,1004.81,VALID,0,INVALID,121.78,VALID,0,VALID,24.0929,VALID,297,VALID,0.214453,
2010-09-09, 03:20:04,VALID,1004.82,VALID,0,INVALID,121.765,VALID,0,VALID,24.0734,VALID,297,VALID,0.210156,
2010-09-09, 03:21:04,VALID,1004.82,VALID,0,INVALID,121.719,VALID,0,VALID,24.0734,VALID,297,VALID,0.0382813,
2010-09-09, 03:22:04,VALID,1004.82,VALID,0,INVALID,121.665,VALID,0,VALID,24.0521,VALID,297,VALID,0,
2010-09-09, 03:23:04,VALID,1004.8,VALID,0,INVALID,121.627,VALID,0,VALID,24.0539,VALID,297,VALID,0.0792969,
2010-09-09, 03:24:04,VALID,1004.83,VALID,0,INVALID,121.551,VALID,0,VALID,24.0326,VALID,297,VALID,0.324219,
2010-09-09, 03:25:04,VALID,1004.84,VALID,0,INVALID,121.467,VALID,0,VALID,24.0521,VALID,297,VALID,0.228125,
2010-09-09, 03:26:04,VALID,1004.83,VALID,0,INVALID,121.444,VALID,0,VALID,24.0539,VALID,297,VALID,0.151562,
2010-09-09, 03:27:04,VALID,1004.83,VALID,0,INVALID,121.437,VALID,0,VALID,24.0326,VALID,297,VALID,0,
2010-09-09, 03:28:04,VALID,1004.87,VALID,0,INVALID,121.429,VALID,0,VALID,24.0539,VALID,297,VALID,0,
2010-09-09, 03:29:04,VALID,1004.84,VALID,0,INVALID,121.337,VALID,0,VALID,24.0326,VALID,297,VALID,0,
2010-09-09, 03:30:04,VALID,1004.85,VALID,0,INVALID,121.299,VALID,0,VALID,24.0326,VALID,297,VALID,0,
2010-09-09, 03:31:04,VALID,1004.86,VALID,0,INVALID,121.192,VALID,0,VALID,24.0539,VALID,297,VALID,0.248437,
2010-09-09, 03:32:04,VALID,1004.83,VALID,0,INVALID,121.185,VALID,0,VALID,24.0326,VALID,297,VALID,0.118359,
2010-09-09, 03:33:04,VALID,1004.79,VALID,0,INVALID,121.139,VALID,0,VALID,24.0345,VALID,297,VALID,0.313672,
2010-09-09, 03:34:04,VALID,1004.76,VALID,0,INVALID,121.009,VALID,0,VALID,24.0132,VALID,297,VALID,0.298438,
2010-09-09, 03:35:04,VALID,1004.75,VALID,0,INVALID,120.902,VALID,0,VALID,24.0132,VALID,297,VALID,0.296875,
2010-09-09, 03:36:04,VALID,1004.75,VALID,0,INVALID,120.834,VALID,0,VALID,24.0539,VALID,297,VALID,0.379687,
2010-09-09, 03:37:04,VALID,1004.72,VALID,0,INVALID,120.773,VALID,0,VALID,24.0326,VALID,297,VALID,0.499609,
2010-09-09, 03:38:04,VALID,1004.73,VALID,0,INVALID,120.674,VALID,0,VALID,24.0132,VALID,324,VALID,0.478516,
2010-09-09, 03:39:04,VALID,1004.73,VALID,0,INVALID,120.574,VALID,0,VALID,23.9919,VALID,341,VALID,0.449219,
2010-09-09, 03:40:04,VALID,1004.73,VALID,0,INVALID,120.468,VALID,0,VALID,24.0539,VALID,341,VALID,0.391016,
2010-09-09, 03:41:04,VALID,1004.71,VALID,0,INVALID,120.384,VALID,0,VALID,24.0326,VALID,341,VALID,0.516797,
2010-09-09, 03:42:04,VALID,1004.72,VALID,0,INVALID,120.33,VALID,0,VALID,24.0539,VALID,341,VALID,0.421484,